Aérodrome :
LOGIN :

S'inscrire | Disclaimer

   EN    FR    IT 

 










Légende :    VFR   VFR Marginal   IFR   IFR Intensif   IFR Très Intensif
Visi : 
Plafond : 
>= 8 km
>= 3000ft
5 à 8 km
1000 à 3000 ft
1500m à 5 km
500 à 1000 ft
800 à 1500m
200 à 500 ft
< 800m
< 200 ft
Symboles :   Orages  Brouillard  Fortes neiges  Fortes précipitations  Vent > 20 kt
SIGMETs :   Divers  Orages  Givrage  Turbulence  Onde Orograph.  Cendres Volcan.







- Altitude de l'aérodrome : 156 ft
- Code IATA : OMO


LQMO - Mostar

DERNIER METAR :
  • 231600Z 17008KT 130V220 9999 FEW075 35/13 Q1010

METARs EXPIRÉS :
  • 231500Z 19010KT 9999 FEW050 37/13 Q1010
  • 231400Z 19013KT 9999 FEW050 38/12 Q1010

TAF TAF LQMO
Valide du 23 à 12h jusqu'au 24 à 12h UTC


231100Z 2312/2412 VRB02KT CAVOK TX39/2314Z TN19/2403Z
TEMPO 2312/2317 22012KT
PROB30
TEMPO 2410/2412 TS FEW040CB SCT050
Pas de NOTAMs connus pour ce terrain.



MET'MAP, la Météo Aéronautique d'un coup d'oeil ! - Copyright ORBIFLY Décembre 2007 - Disclaimer

ORBIFLY MET'MAP TEAM :

Programmation & Développement : Alexandra Zaïnal
Conception & Développement : Baudouin d'Aumeries
Co-Programmation & Développement : Marc-Olivier Méhu
Soutien technique & logistique : Manuel Goepfert

Contact : metmap@orbifly.com




SOURCES & CREDITS :

   NOAA